| time (UTC) | temp F | wind direction | speed MPH | gust MPH | rain 1hr in | rain 24hr in | rain mn in | humidity % | barometer mb |
| 20260509224547 | 68 | 198 | 1.0 | 3.0 | 0.00 | 0.00 | 0.00 | 81 | 1012.2 |
| 20260509224051 | 69 | 199 | 1.0 | 3.0 | 0.00 | 0.00 | 0.00 | 81 | 1012.2 |
| 20260509223600 | 69 | 186 | 2.0 | 3.0 | 0.00 | 0.00 | 0.00 | 80 | 1012.1 |
| 20260509223109 | 69 | 153 | 0.0 | 2.0 | 0.00 | 0.00 | 0.00 | 80 | 1012.1 |
| 20260509222047 | 69 | 153 | 1.0 | 3.0 | 0.00 | 0.00 | 0.00 | 80 | 1012.1 |
| 20260509221047 | 69 | 146 | 0.0 | 3.0 | 0.00 | 0.00 | 0.00 | 79 | 1012.1 |
| 20260509220553 | 69 | 181 | 1.0 | 4.0 | 0.00 | 0.00 | 0.00 | 79 | 1012.1 |
| 20260509215551 | 69 | 174 | 2.0 | 5.0 | 0.00 | 0.00 | 0.00 | 78 | 1012.1 |
| 20260509215059 | 69 | 139 | 1.0 | 4.0 | 0.00 | 0.00 | 0.00 | 78 | 1012.2 |
| 20260509214549 | 69 | 180 | 0.0 | 6.0 | 0.00 | 0.00 | 0.00 | 78 | 1012.2 |
| 20260509214056 | 70 | 166 | 2.0 | 6.0 | 0.00 | 0.00 | 0.00 | 77 | 1012.1 |
| 20260509213545 | 70 | 171 | 2.0 | 4.0 | 0.00 | 0.00 | 0.00 | 78 | 1012.2 |
| 20260509213051 | 69 | 180 | 2.0 | 4.0 | 0.00 | 0.00 | 0.00 | 79 | 1012.3 |
| 20260509212557 | 69 | 193 | 1.0 | 3.0 | 0.00 | 0.00 | 0.00 | 78 | 1012.1 |
| 20260509212101 | 69 | 193 | 1.0 | 3.0 | 0.00 | 0.00 | 0.00 | 78 | 1012.0 |
| 20260509211550 | 70 | 193 | 1.0 | 4.0 | 0.00 | 0.00 | 0.00 | 77 | 1011.9 |
| 20260509211507 | 69 | 193 | 1.0 | 4.0 | 0.00 | 0.00 | 0.00 | 77 | 1011.1 |
| 20260509210546 | 69 | 179 | 2.0 | 6.0 | 0.00 | 0.00 | 0.00 | 77 | 1011.9 |
| 20260509210127 | 69 | 185 | 2.0 | 4.0 | 0.00 | 0.00 | 0.00 | 77 | 1011.8 |
| 20260509205053 | 70 | 181 | 2.0 | 5.0 | 0.00 | 0.00 | 0.00 | 77 | 1011.8 |
| 20260509204559 | 69 | 164 | 1.0 | 4.0 | 0.00 | 0.00 | 0.00 | 77 | 1011.8 |
| 20260509203553 | 69 | 191 | 3.0 | 4.0 | 0.00 | 0.00 | 0.00 | 77 | 1011.8 |
| 20260509203101 | 69 | 195 | 1.0 | 3.0 | 0.00 | 0.00 | 0.00 | 77 | 1011.9 |
| 20260509202551 | 69 | 167 | 1.0 | 3.0 | 0.00 | 0.00 | 0.00 | 78 | 1011.9 |
| 20260509202058 | 69 | 181 | 0.0 | 3.0 | 0.00 | 0.00 | 0.00 | 77 | 1011.8 |
| 20260509201549 | 69 | 181 | 1.0 | 3.0 | 0.00 | 0.00 | 0.00 | 78 | 1011.8 |
| 20260509201101 | 69 | 181 | 1.0 | 4.0 | 0.00 | 0.00 | 0.00 | 77 | 1011.9 |
| 20260509200549 | 69 | 181 | 1.0 | 4.0 | 0.00 | 0.00 | 0.00 | 76 | 1012.0 |
| 20260509195602 | 69 | 176 | 1.0 | 5.0 | 0.00 | 0.00 | 0.00 | 76 | 1012.0 |
| 20260509195050 | 69 | 176 | 3.0 | 5.0 | 0.00 | 0.00 | 0.00 | 76 | 1012.1 |
| 20260509194557 | 69 | 165 | 2.0 | 5.0 | 0.00 | 0.00 | 0.00 | 77 | 1012.1 |
| 20260509194048 | 69 | 171 | 1.0 | 4.0 | 0.00 | 0.00 | 0.00 | 77 | 1012.1 |
| 20260509193106 | 69 | 184 | 1.0 | 7.0 | 0.00 | 0.00 | 0.00 | 76 | 1012.5 |
| 20260509192547 | 70 | 49 | 1.0 | 5.0 | 0.00 | 0.00 | 0.00 | 76 | 1012.5 |
| 20260509192058 | 70 | 157 | 3.0 | 5.0 | 0.00 | 0.00 | 0.00 | 77 | 1012.4 |
| 20260509190554 | 70 | 133 | 1.0 | 5.0 | 0.00 | 0.00 | 0.00 | 76 | 1012.5 |
| 20260509185608 | 70 | 179 | 2.0 | 3.0 | 0.00 | 0.00 | 0.00 | 76 | 1012.4 |
| 20260509185050 | 70 | 163 | 2.0 | 3.0 | 0.00 | 0.00 | 0.00 | 76 | 1012.4 |
| 20260509184050 | 69 | 176 | 1.0 | 4.0 | 0.00 | 0.00 | 0.00 | 76 | 1012.5 |
| 20260509183559 | 69 | 190 | 1.0 | 5.0 | 0.00 | 0.00 | 0.00 | 77 | 1012.6 |
| 20260509183047 | 69 | 117 | 2.0 | 5.0 | 0.00 | 0.00 | 0.00 | 76 | 1012.7 |
| 20260509182101 | 69 | 170 | 3.0 | 4.0 | 0.00 | 0.00 | 0.00 | 79 | 1012.8 |
| 20260509181551 | 69 | 185 | 0.0 | 4.0 | 0.00 | 0.00 | 0.00 | 79 | 1013.0 |
| 20260509181059 | 69 | 185 | 1.0 | 7.0 | 0.00 | 0.00 | 0.00 | 79 | 1013.0 |
| 20260509180551 | 68 | 170 | 3.0 | 7.0 | 0.00 | 0.00 | 0.00 | 78 | 1013.1 |
| 20260509175054 | 68 | 123 | 1.0 | 8.0 | 0.00 | 0.00 | 0.00 | 78 | 1013.1 |
| 20260509174602 | 68 | 181 | 3.0 | 8.0 | 0.00 | 0.00 | 0.00 | 80 | 1013.0 |
| 20260509173544 | 67 | 162 | 2.0 | 4.0 | 0.00 | 0.00 | 0.00 | 83 | 1013.0 |
| 20260509173056 | 67 | 187 | 0.0 | 5.0 | 0.00 | 0.00 | 0.00 | 84 | 1013.0 |
| 20260509172602 | 67 | 216 | 3.0 | 5.0 | 0.00 | 0.00 | 0.00 | 84 | 1013.1 |
| 20260509171602 | 67 | 196 | 4.0 | 6.0 | 0.00 | 0.00 | 0.00 | 84 | 1013.1 |
| 20260509171052 | 66 | 172 | 1.0 | 3.0 | 0.00 | 0.00 | 0.00 | 86 | 1012.9 |
| 20260509170601 | 66 | 155 | 1.0 | 4.0 | 0.00 | 0.00 | 0.00 | 86 | 1012.7 |
| 20260509170123 | 66 | 141 | 1.0 | 6.0 | 0.00 | 0.00 | 0.00 | 86 | 1012.8 |
| 20260509170028 | 66 | 141 | 1.0 | 6.0 | 0.00 | 0.00 | 0.00 | 86 | 1012.1 |
| 20260509165547 | 66 | 192 | 0.0 | 4.0 | 0.00 | 0.00 | 0.00 | 87 | 1012.8 |
| 20260509165054 | 66 | 184 | 0.0 | 1.0 | 0.00 | 0.00 | 0.00 | 87 | 1012.9 |
| 20260509164601 | 66 | 184 | 1.0 | 5.0 | 0.00 | 0.00 | 0.00 | 87 | 1012.9 |
| 20260509164048 | 66 | 184 | 2.0 | 5.0 | 0.00 | 0.00 | 0.00 | 86 | 1013.1 |
| 20260509163559 | 66 | 208 | 1.0 | 3.0 | 0.00 | 0.00 | 0.00 | 87 | 1013.5 |
| 20260509162557 | 66 | 170 | 1.0 | 5.0 | 0.00 | 0.00 | 0.00 | 88 | 1013.3 |
| 20260509162047 | 66 | 169 | 3.0 | 6.0 | 0.00 | 0.00 | 0.00 | 87 | 1013.3 |
| 20260509161556 | 66 | 203 | 3.0 | 5.0 | 0.00 | 0.00 | 0.00 | 89 | 1013.4 |
| 20260509161047 | 65 | 146 | 1.0 | 5.0 | 0.00 | 0.00 | 0.00 | 89 | 1013.4 |
| 20260509160552 | 65 | 176 | 2.0 | 5.0 | 0.00 | 0.00 | 0.00 | 89 | 1013.0 |
| 20260509160101 | 65 | 173 | 3.0 | 5.0 | 0.00 | 0.00 | 0.00 | 90 | 1013.1 |
| 20260509155551 | 65 | 183 | 2.0 | 4.0 | 0.00 | 0.00 | 0.00 | 90 | 1013.3 |
| 20260509154555 | 65 | 173 | 2.0 | 4.0 | 0.00 | 0.00 | 0.00 | 90 | 1013.0 |
| 20260509153558 | 65 | 175 | 2.0 | 4.0 | 0.00 | 0.00 | 0.00 | 91 | 1012.9 |
| 20260509153047 | 65 | 187 | 0.0 | 4.0 | 0.00 | 0.00 | 0.00 | 91 | 1012.9 |
| 20260509152549 | 64 | 189 | 1.0 | 6.0 | 0.00 | 0.00 | 0.00 | 91 | 1012.9 |
| 20260509152057 | 64 | 193 | 3.0 | 6.0 | 0.00 | 0.00 | 0.00 | 91 | 1012.9 |
| 20260509151058 | 64 | 195 | 3.0 | 7.0 | 0.00 | 0.00 | 0.00 | 91 | 1013.2 |
| 20260509150549 | 64 | 159 | 2.0 | 6.0 | 0.00 | 0.00 | 0.00 | 91 | 1013.5 |
| 20260509145550 | 63 | 151 | 2.0 | 6.0 | 0.00 | 0.00 | 0.00 | 92 | 1013.4 |
| 20260509144548 | 63 | 200 | 1.0 | 5.0 | 0.00 | 0.00 | 0.00 | 92 | 1013.5 |
| 20260509144057 | 63 | 183 | 1.0 | 5.0 | 0.00 | 0.00 | 0.00 | 93 | 1013.7 |
| 20260509143605 | 63 | 195 | 1.0 | 6.0 | 0.00 | 0.00 | 0.00 | 93 | 1013.6 |
| 20260509143053 | 62 | 212 | 3.0 | 8.0 | 0.00 | 0.00 | 0.00 | 93 | 1013.7 |
| 20260509142558 | 62 | 160 | 4.0 | 10.0 | 0.00 | 0.00 | 0.00 | 94 | 1013.6 |
| 20260509142049 | 62 | 185 | 2.0 | 10.0 | 0.00 | 0.00 | 0.00 | 94 | 1013.6 |
| 20260509141553 | 62 | 181 | 2.0 | 8.0 | 0.00 | 0.00 | 0.00 | 94 | 1013.5 |
| 20260509141101 | 62 | 182 | 3.0 | 8.0 | 0.00 | 0.00 | 0.00 | 94 | 1013.6 |
| 20260509140550 | 62 | 190 | 3.0 | 6.0 | 0.00 | 0.00 | 0.00 | 94 | 1013.5 |
| 20260509140056 | 61 | 190 | 3.0 | 7.0 | 0.00 | 0.00 | 0.00 | 94 | 1013.5 |
| 20260509140006 | 61 | 166 | 1.0 | 7.0 | 0.00 | 0.00 | 0.00 | 94 | 1012.8 |
| 20260509135047 | 61 | 173 | 3.0 | 8.0 | 0.00 | 0.00 | 0.00 | 95 | 1013.5 |
| 20260509134556 | 61 | 167 | 2.0 | 10.0 | 0.00 | 0.00 | 0.00 | 95 | 1013.5 |
| 20260509133558 | 61 | 214 | 3.0 | 9.0 | 0.00 | 0.00 | 0.00 | 94 | 1013.4 |
| 20260509133105 | 61 | 178 | 4.0 | 6.0 | 0.00 | 0.00 | 0.00 | 95 | 1013.1 |
| 20260509132553 | 61 | 169 | 1.0 | 6.0 | 0.00 | 0.00 | 0.00 | 95 | 1012.9 |
| 20260509132059 | 61 | 176 | 2.0 | 6.0 | 0.00 | 0.00 | 0.00 | 95 | 1012.7 |
| 20260509131101 | 61 | 176 | 2.0 | 5.0 | 0.00 | 0.00 | 0.00 | 95 | 1012.7 |
| 20260509130056 | 61 | 227 | 3.0 | 8.0 | 0.00 | 0.00 | 0.00 | 95 | 1013.1 |
| 20260509125600 | 61 | 231 | 3.0 | 8.0 | 0.00 | 0.00 | 0.00 | 95 | 1013.0 |
| 20260509124601 | 61 | 221 | 2.0 | 7.0 | 0.00 | 0.00 | 0.00 | 95 | 1012.9 |
| 20260509124048 | 61 | 245 | 2.0 | 7.0 | 0.00 | 0.00 | 0.00 | 95 | 1013.0 |
| 20260509123558 | 60 | 188 | 1.0 | 7.0 | 0.00 | 0.00 | 0.00 | 95 | 1012.9 |
| 20260509123050 | 60 | 169 | 3.0 | 6.0 | 0.00 | 0.00 | 0.00 | 95 | 1012.8 |
| 20260509122045 | 60 | 192 | 2.0 | 7.0 | 0.00 | 0.00 | 0.00 | 95 | 1012.8 |
| 20260509121557 | 60 | 181 | 2.0 | 8.0 | 0.00 | 0.00 | 0.00 | 95 | 1012.8 |
| 20260509121048 | 60 | 193 | 2.0 | 8.0 | 0.00 | 0.00 | 0.00 | 95 | 1012.7 |
| 20260509120555 | 60 | 187 | 2.0 | 5.0 | 0.00 | 0.00 | 0.00 | 95 | 1012.6 |
| 20260509120104 | 60 | 200 | 2.0 | 5.0 | 0.00 | 0.00 | 0.00 | 95 | 1012.5 |
| 20260509115553 | 60 | 198 | 3.0 | 5.0 | 0.00 | 0.00 | 0.00 | 95 | 1012.7 |
| 20260509115057 | 60 | 199 | 1.0 | 5.0 | 0.00 | 0.00 | 0.00 | 95 | 1012.6 |
| 20260509114102 | 59 | 190 | 2.0 | 4.0 | 0.00 | 0.00 | 0.00 | 94 | 1012.8 |
| 20260509113551 | 59 | 169 | 0.0 | 3.0 | 0.00 | 0.00 | 0.00 | 94 | 1012.8 |
| 20260509113100 | 59 | 158 | 0.0 | 3.0 | 0.00 | 0.00 | 0.00 | 94 | 1012.5 |
| 20260509112101 | 59 | 158 | 0.0 | 0.0 | 0.00 | 0.00 | 0.00 | 94 | 1012.0 |
| 20260509111551 | 59 | 158 | 0.0 | 0.0 | 0.00 | 0.00 | 0.00 | 94 | 1011.9 |
| 20260509111059 | 59 | 158 | 0.0 | 0.0 | 0.00 | 0.00 | 0.00 | 94 | 1012.0 |
| 20260509110547 | 59 | 158 | 0.0 | 0.0 | 0.00 | 0.00 | 0.00 | 94 | 1011.9 |
| 20260509110127 | 59 | 158 | 0.0 | 0.0 | 0.00 | 0.00 | 0.00 | 94 | 1012.0 |
| 20260509105604 | 59 | 158 | 0.0 | 0.0 | 0.00 | 0.00 | 0.00 | 94 | 1012.0 |
| 20260509105048 | 59 | 158 | 0.0 | 1.0 | 0.00 | 0.00 | 0.00 | 94 | 1011.8 |
| 20260509104601 | 59 | 158 | 0.0 | 1.0 | 0.00 | 0.00 | 0.00 | 94 | 1011.8 |
| 20260509103556 | 58 | 158 | 0.0 | 1.0 | 0.00 | 0.00 | 0.00 | 94 | 1012.2 |
| 20260509103105 | 58 | 158 | 0.0 | 1.0 | 0.00 | 0.00 | 0.00 | 94 | 1012.2 |
| 20260509102551 | 58 | 158 | 0.0 | 0.0 | 0.00 | 0.00 | 0.00 | 94 | 1012.4 |
| 20260509101553 | 58 | 158 | 0.0 | 1.0 | 0.00 | 0.00 | 0.00 | 94 | 1012.5 |
| 20260509101105 | 58 | 158 | 0.0 | 1.0 | 0.00 | 0.00 | 0.00 | 94 | 1012.4 |
| 20260509100555 | 58 | 158 | 0.0 | 1.0 | 0.00 | 0.00 | 0.00 | 94 | 1012.5 |
| 20260509095547 | 58 | 158 | 0.0 | 2.0 | 0.00 | 0.00 | 0.00 | 94 | 1012.8 |
| 20260509094547 | 58 | 158 | 0.0 | 0.0 | 0.00 | 0.00 | 0.00 | 93 | 1012.9 |
| 20260509094054 | 58 | 158 | 0.0 | 1.0 | 0.00 | 0.00 | 0.00 | 93 | 1012.9 |
| 20260509093545 | 58 | 158 | 0.0 | 2.0 | 0.00 | 0.00 | 0.00 | 93 | 1012.8 |
| 20260509093057 | 59 | 158 | 1.0 | 2.0 | 0.00 | 0.00 | 0.00 | 93 | 1012.7 |
| 20260509092602 | 59 | 158 | 0.0 | 2.0 | 0.00 | 0.00 | 0.00 | 93 | 1012.6 |
| 20260509092050 | 59 | 158 | 0.0 | 0.0 | 0.00 | 0.00 | 0.00 | 93 | 1012.6 |
| 20260509091600 | 59 | 158 | 0.0 | 0.0 | 0.00 | 0.00 | 0.00 | 93 | 1012.6 |
| 20260509091048 | 59 | 158 | 0.0 | 0.0 | 0.00 | 0.00 | 0.00 | 93 | 1012.5 |
| 20260509090556 | 59 | 158 | 0.0 | 0.0 | 0.00 | 0.00 | 0.00 | 93 | 1012.5 |
| 20260509090104 | 59 | 158 | 0.0 | 0.0 | 0.00 | 0.00 | 0.00 | 93 | 1012.4 |
| 20260509090003 | 59 | 158 | 0.0 | 0.0 | 0.00 | 0.00 | 0.00 | 93 | 1011.8 |
| 20260509085607 | 59 | 158 | 0.0 | 0.0 | 0.00 | 0.00 | 0.00 | 93 | 1012.4 |
| 20260509085052 | 59 | 158 | 0.0 | 0.0 | 0.00 | 0.00 | 0.00 | 93 | 1012.6 |
| 20260509084559 | 59 | 158 | 0.0 | 0.0 | 0.00 | 0.00 | 0.00 | 93 | 1012.4 |
| 20260509084048 | 59 | 158 | 0.0 | 0.0 | 0.00 | 0.00 | 0.00 | 93 | 1012.3 |
| 20260509083557 | 59 | 158 | 0.0 | 0.0 | 0.00 | 0.00 | 0.00 | 93 | 1012.2 |
| 20260509083104 | 59 | 158 | 0.0 | 0.0 | 0.00 | 0.00 | 0.00 | 93 | 1012.2 |
| 20260509082549 | 59 | 158 | 0.0 | 0.0 | 0.00 | 0.00 | 0.00 | 93 | 1012.3 |
| 20260509082056 | 58 | 158 | 0.0 | 0.0 | 0.00 | 0.00 | 0.00 | 92 | 1012.3 |
| 20260509081605 | 58 | 158 | 0.0 | 0.0 | 0.00 | 0.00 | 0.00 | 92 | 1012.3 |
| 20260509081054 | 59 | 158 | 0.0 | 1.0 | 0.00 | 0.00 | 0.00 | 92 | 1012.3 |
| 20260509080602 | 59 | 158 | 0.0 | 1.0 | 0.00 | 0.00 | 0.00 | 92 | 1012.3 |
| 20260509080050 | 59 | 158 | 0.0 | 0.0 | 0.00 | 0.00 | 0.00 | 92 | 1012.1 |
| 20260509075554 | 59 | 158 | 0.0 | 1.0 | 0.00 | 0.00 | 0.00 | 92 | 1012.0 |
| 20260509075101 | 59 | 158 | 0.0 | 1.0 | 0.00 | 0.00 | 0.00 | 92 | 1011.7 |
| 20260509074554 | 59 | 158 | 0.0 | 1.0 | 0.00 | 0.00 | 0.00 | 92 | 1011.8 |
| 20260509074101 | 59 | 158 | 0.0 | 2.0 | 0.00 | 0.00 | 0.00 | 91 | 1011.8 |
| 20260509073552 | 59 | 158 | 0.0 | 3.0 | 0.00 | 0.00 | 0.00 | 91 | 1011.8 |
| 20260509073102 | 59 | 148 | 1.0 | 2.0 | 0.00 | 0.00 | 0.00 | 91 | 1011.8 |
| 20260509071549 | 59 | 73 | 0.0 | 2.0 | 0.00 | 0.00 | 0.00 | 91 | 1011.7 |
| 20260509071058 | 59 | 73 | 0.0 | 3.0 | 0.00 | 0.00 | 0.00 | 91 | 1011.7 |
| 20260509070549 | 59 | 173 | 0.0 | 3.0 | 0.00 | 0.00 | 0.00 | 91 | 1011.8 |
| 20260509070057 | 59 | 173 | 0.0 | 2.0 | 0.00 | 0.00 | 0.00 | 91 | 1012.0 |
| 20260509065601 | 59 | 183 | 0.0 | 0.0 | 0.00 | 0.00 | 0.00 | 91 | 1012.1 |
| 20260509065049 | 59 | 183 | 0.0 | 0.0 | 0.00 | 0.00 | 0.00 | 91 | 1012.1 |
| 20260509064555 | 59 | 183 | 0.0 | 0.0 | 0.00 | 0.00 | 0.00 | 91 | 1012.3 |
| 20260509063602 | 59 | 183 | 0.0 | 0.0 | 0.00 | 0.00 | 0.00 | 92 | 1012.6 |
| 20260509063054 | 59 | 183 | 0.0 | 0.0 | 0.00 | 0.00 | 0.00 | 92 | 1012.6 |
| 20260509062559 | 59 | 183 | 0.0 | 0.0 | 0.00 | 0.00 | 0.00 | 92 | 1012.8 |
| 20260509062048 | 59 | 183 | 0.0 | 0.0 | 0.00 | 0.00 | 0.00 | 91 | 1012.9 |
| 20260509061558 | 60 | 183 | 0.0 | 0.0 | 0.00 | 0.00 | 0.00 | 91 | 1013.0 |
| 20260509061049 | 60 | 183 | 0.0 | 0.0 | 0.00 | 0.00 | 0.00 | 91 | 1013.0 |
| 20260509060556 | 60 | 183 | 0.0 | 0.0 | 0.00 | 0.00 | 0.00 | 91 | 1013.1 |
| 20260509055550 | 60 | 183 | 0.0 | 0.0 | 0.00 | 0.00 | 0.00 | 91 | 1013.1 |
| 20260509055101 | 60 | 183 | 0.0 | 0.0 | 0.00 | 0.00 | 0.00 | 91 | 1013.2 |
| 20260509054551 | 60 | 183 | 0.0 | 0.0 | 0.00 | 0.00 | 0.00 | 91 | 1013.2 |
| 20260509054059 | 60 | 183 | 0.0 | 0.0 | 0.00 | 0.00 | 0.00 | 91 | 1013.1 |
| 20260509053551 | 60 | 183 | 0.0 | 0.0 | 0.00 | 0.00 | 0.00 | 90 | 1013.2 |
| 20260509052548 | 60 | 183 | 0.0 | 0.0 | 0.00 | 0.00 | 0.00 | 90 | 1013.3 |
| 20260509052055 | 60 | 183 | 0.0 | 0.0 | 0.00 | 0.00 | 0.00 | 90 | 1013.3 |
| 20260509051605 | 61 | 183 | 0.0 | 0.0 | 0.00 | 0.00 | 0.00 | 90 | 1013.2 |
| 20260509051055 | 61 | 183 | 0.0 | 0.0 | 0.00 | 0.00 | 0.00 | 89 | 1013.4 |
| 20260509050605 | 61 | 189 | 0.0 | 0.0 | 0.00 | 0.00 | 0.00 | 89 | 1013.3 |
| 20260509050053 | 61 | 189 | 0.0 | 0.0 | 0.00 | 0.00 | 0.00 | 89 | 1013.5 |
| 20260509045105 | 61 | 189 | 0.0 | 0.0 | 0.00 | 0.00 | 0.00 | 89 | 1013.5 |
| 20260509044045 | 61 | 189 | 0.0 | 0.0 | 0.00 | 0.00 | 0.00 | 89 | 1013.4 |
| 20260509043556 | 61 | 189 | 0.0 | 0.0 | 0.00 | 0.00 | 0.00 | 89 | 1013.4 |
| 20260509043107 | 61 | 189 | 0.0 | 0.0 | 0.00 | 0.00 | 0.00 | 89 | 1013.7 |
| 20260509042551 | 61 | 189 | 0.0 | 0.0 | 0.00 | 0.00 | 0.00 | 89 | 1013.8 |
| 20260509041548 | 61 | 193 | 0.0 | 0.0 | 0.00 | 0.00 | 0.00 | 89 | 1013.5 |
| 20260509040549 | 61 | 193 | 0.0 | 0.0 | 0.00 | 0.00 | 0.00 | 89 | 1013.8 |
| 20260509040503 | 60 | 193 | 0.0 | 0.0 | 0.00 | 0.00 | 0.00 | 89 | 1013.1 |
| 20260509040128 | 61 | 193 | 0.0 | 0.0 | 0.00 | 0.00 | 0.00 | 89 | 1013.9 |
| 20260509035605 | 61 | 193 | 0.0 | 0.0 | 0.00 | 0.00 | 0.00 | 89 | 1014.0 |
| 20260509035054 | 61 | 193 | 0.0 | 0.0 | 0.00 | 0.00 | 0.00 | 88 | 1014.0 |
| 20260509034051 | 61 | 193 | 0.0 | 0.0 | 0.00 | 0.00 | 0.00 | 88 | 1014.1 |
| 20260509033053 | 61 | 193 | 0.0 | 0.0 | 0.00 | 0.00 | 0.00 | 88 | 1014.1 |
| 20260509032600 | 61 | 193 | 0.0 | 0.0 | 0.00 | 0.00 | 0.00 | 87 | 1014.0 |
| 20260509032046 | 61 | 193 | 0.0 | 0.0 | 0.00 | 0.00 | 0.00 | 87 | 1014.1 |
| 20260509031556 | 61 | 193 | 0.0 | 0.0 | 0.00 | 0.00 | 0.00 | 87 | 1014.1 |
| 20260509031101 | 61 | 193 | 0.0 | 0.0 | 0.00 | 0.00 | 0.00 | 86 | 1014.1 |
| 20260509030549 | 61 | 193 | 0.0 | 0.0 | 0.00 | 0.00 | 0.00 | 86 | 1014.0 |
| 20260509030501 | 61 | 193 | 0.0 | 0.0 | 0.00 | 0.00 | 0.00 | 86 | 1013.3 |
| 20260509030129 | 62 | 193 | 0.0 | 0.0 | 0.00 | 0.00 | 0.00 | 85 | 1014.1 |
| 20260509030028 | 61 | 193 | 0.0 | 0.0 | 0.00 | 0.00 | 0.00 | 85 | 1013.4 |
| 20260509025546 | 62 | 193 | 0.0 | 0.0 | 0.00 | 0.00 | 0.00 | 85 | 1014.2 |
| 20260509025058 | 62 | 193 | 0.0 | 0.0 | 0.00 | 0.00 | 0.00 | 85 | 1014.1 |
| 20260509024545 | 62 | 193 | 0.0 | 0.0 | 0.00 | 0.00 | 0.00 | 85 | 1014.1 |
| 20260509024058 | 62 | 193 | 0.0 | 0.0 | 0.00 | 0.00 | 0.00 | 85 | 1014.1 |
| 20260509023544 | 62 | 193 | 0.0 | 0.0 | 0.00 | 0.00 | 0.00 | 84 | 1014.2 |
| 20260509023050 | 63 | 193 | 0.0 | 0.0 | 0.00 | 0.00 | 0.00 | 83 | 1014.2 |
| 20260509022048 | 63 | 193 | 0.0 | 1.0 | 0.00 | 0.00 | 0.00 | 82 | 1014.2 |
| 20260509021600 | 63 | 193 | 0.0 | 1.0 | 0.00 | 0.00 | 0.00 | 82 | 1014.3 |
| 20260509020602 | 63 | 193 | 0.0 | 1.0 | 0.00 | 0.00 | 0.00 | 82 | 1014.5 |
| 20260509020110 | 63 | 193 | 0.0 | 1.0 | 0.00 | 0.00 | 0.00 | 81 | 1014.5 |
| 20260509020021 | 62 | 193 | 0.0 | 1.0 | 0.00 | 0.00 | 0.00 | 81 | 1013.7 |
| 20260509015549 | 63 | 193 | 0.0 | 1.0 | 0.00 | 0.00 | 0.00 | 81 | 1014.4 |
| 20260509014550 | 63 | 193 | 1.0 | 2.0 | 0.00 | 0.00 | 0.00 | 81 | 1014.3 |
| 20260509013058 | 63 | 193 | 0.0 | 1.0 | 0.00 | 0.00 | 0.00 | 80 | 1014.4 |
| 20260509012602 | 63 | 193 | 0.0 | 1.0 | 0.00 | 0.00 | 0.00 | 80 | 1014.2 |
| 20260509012049 | 63 | 193 | 0.0 | 2.0 | 0.00 | 0.00 | 0.00 | 80 | 1014.3 |
| 20260509011602 | 63 | 193 | 1.0 | 2.0 | 0.00 | 0.00 | 0.00 | 80 | 1014.2 |
| 20260509011054 | 63 | 193 | 0.0 | 0.0 | 0.00 | 0.00 | 0.00 | 80 | 1014.4 |
| 20260509010602 | 63 | 193 | 0.0 | 0.0 | 0.00 | 0.00 | 0.00 | 80 | 1014.3 |
| 20260509005600 | 63 | 193 | 0.0 | 0.0 | 0.00 | 0.00 | 0.00 | 79 | 1014.5 |
| 20260509005107 | 63 | 193 | 0.0 | 0.0 | 0.00 | 0.00 | 0.00 | 79 | 1014.6 |
| 20260509005021 | 63 | 193 | 0.0 | 0.0 | 0.00 | 0.00 | 0.00 | 79 | 1014.0 |
| 20260509004549 | 64 | 193 | 0.0 | 0.0 | 0.00 | 0.00 | 0.00 | 79 | 1014.7 |
| 20260509003549 | 64 | 193 | 0.0 | 2.0 | 0.00 | 0.00 | 0.00 | 78 | 1014.6 |
| 20260509003058 | 64 | 193 | 1.0 | 2.0 | 0.00 | 0.00 | 0.00 | 78 | 1014.6 |
| 20260509002053 | 64 | 193 | 1.0 | 3.0 | 0.00 | 0.00 | 0.00 | 77 | 1014.5 |
| 20260509001603 | 64 | 193 | 1.0 | 4.0 | 0.00 | 0.00 | 0.00 | 76 | 1014.6 |
| 20260509001519 | 64 | 193 | 0.0 | 4.0 | 0.00 | 0.00 | 0.00 | 76 | 1014.0 |
| 20260509001046 | 65 | 193 | 2.0 | 6.0 | 0.00 | 0.00 | 0.00 | 76 | 1014.4 |
| 20260509000556 | 65 | 177 | 1.0 | 5.0 | 0.00 | 0.00 | 0.00 | 76 | 1014.5 |
| 20260509000107 | 65 | 192 | 2.0 | 5.0 | 0.00 | 0.00 | 0.00 | 75 | 1014.4 |
| 20260508235551 | 65 | 157 | 1.0 | 5.0 | 0.00 | 0.00 | 0.00 | 75 | 1014.4 |
| 20260508235102 | 65 | 182 | 2.0 | 4.0 | 0.00 | 0.00 | 0.00 | 74 | 1014.5 |
| 20260508234552 | 65 | 169 | 1.0 | 3.0 | 0.00 | 0.00 | 0.00 | 74 | 1014.6 |
| 20260508234059 | 65 | 150 | 1.0 | 4.0 | 0.00 | 0.00 | 0.00 | 74 | 1014.7 |
| 20260508233550 | 65 | 186 | 1.0 | 5.0 | 0.00 | 0.00 | 0.00 | 74 | 1014.3 |
| 20260508233052 | 66 | 178 | 1.0 | 4.0 | 0.00 | 0.00 | 0.00 | 73 | 1014.4 |
| 20260508232556 | 66 | 175 | 2.0 | 4.0 | 0.00 | 0.00 | 0.00 | 73 | 1014.6 |
| 20260508232044 | 66 | 169 | 1.0 | 6.0 | 0.00 | 0.00 | 0.00 | 73 | 1014.6 |
| 20260508231554 | 66 | 173 | 2.0 | 6.0 | 0.00 | 0.00 | 0.00 | 73 | 1014.5 |
| 20260508225552 | 67 | 177 | 1.0 | 4.0 | 0.00 | 0.00 | 0.00 | 71 | 1014.0 |